User: anonymous   Login
Location: Zilina
(0.0000°N, 18.7333°E)
Time: 04:53:12
(UTC+02:00)
Language:

ARIANE 5 R/B - Orbit

View from above orbital plane
View from above orbital plane
View from above satellite
View from above satellite

Ground track
Ground track

The orbit data is extracted from the following two-line orbital elements,

1 37777U 11041C   19109.72487895 +.00001243 +00000-0 +46261-3 0  9990
2 37777 002.2337 000.6789 7179655 069.0569 349.7394 02.40689921066333
Epoch (UTC): 19 April 2019 17:23:49
Eccentricity: 0.7179655
inclination: 2.2337°
perigee height: 255 km
apogee height: 34027 km
right ascension of ascending node: 0.6789°
argument of perigee: 69.0569°
revolutions per day: 2.40689921
mean anomaly at epoch: 349.7394°
orbit number at epoch: 6633

The dashed part of the orbit path shows where the satellite is in the earth's shadow,  

DLR